Wind_Speed
20 19 17 16 16 15 15 15 15 15 16 16 17 17 17 19 18 16 18 6 2 2 6 8 7 10 11 9 5 4 1 3 6 3 5 16 10 22 26 15 7 6 9 11 12
21 20 19 18 17 16 16 15 15 15 15 15 16 17 18 20 22 21 4 11 5 6 8 10 8 5 3 3 4 5 3 8 6 4 6 13 22 18 11 16 10 11 9 12 14
22 21 20 19 18 17 16 16 15 15 15 17 18 19 18 18 22 3 13 6 6 12 13 10 9 6 3 2 5 4 6 6 7 14 21 7 16 12 11 7 20 18 14 14 20
22 21 20 19 19 18 17 16 16 17 18 19 20 20 19 15 6 3 14 11 13 20 12 4 4 3 4 5 8 5 10 11 11 23 10 10 14 16 16 23 33 31 17 17 26
22 22 22 20 20 19 18 18 18 19 19 20 21 21 18 5 27 24 24 26 30 22 13 8 9 6 4 4 5 8 8 13 14 25 24 24 18 15 16 41 36 31 17 22 28
24 23 22 20 20 19 19 19 19 19 20 21 20 19 14 9 20 4 6 8 11 13 13 14 7 5 7 7 4 6 15 18 21 24 21 20 25 13 25 34 26 22 23 27 31
25 25 23 21 21 19 19 20 19 19 19 19 18 17 16 33 25 30 29 30 28 27 22 22 17 11 2 4 8 5 11 16 13 18 9 20 11 15 36 35 29 28 28 29 34
28 26 22 21 20 19 19 20 19 18 18 16 16 16 15 23 24 28 23 23 20 26 32 33 26 20 9 8 7 7 6 6 2 4 7 4 15 9 22 20 24 32 30 31 36
28 25 22 21 19 19 19 18 18 19 18 15 15 12 16 12 7 2 7 7 6 7 11 19 14 15 5 3 4 3 9 7 7 9 6 6 15 4 7 20 21 31 32 31 35
28 24 22 20 18 17 15 14 14 15 14 13 14 8 15 17 10 7 6 5 6 5 2 7 9 3 4 6 12 7 7 6 7 3 2 8 30 15 19 26 24 29 33 28 32
26 23 20 17 15 12 9 7 6 6 14 13 8 8 7 4 7 5 5 7 7 6 4 7 4 11 20 19 15 4 7 12 3 4 7 12 28 28 16 15 20 27 31 36 34
23 21 18 15 12 10 9 7 5 3 10 19 28 34 37 33 15 29 18 6 5 5 2 5 21 13 9 15 17 18 18 25 19 12 10 8 25 30 17 16 20 27 29 36 39
21 19 16 14 13 11 10 8 7 7 5 10 23 19 20 20 15 32 28 15 7 5 10 16 9 6 16 14 15 17 25 23 19 2 13 8 23 30 26 18 25 30 36 40 39
20 18 16 14 12 15 11 8 7 3 3 5 6 7 9 6 6 10 18 15 7 19 5 15 15 22 17 15 11 22 12 21 18 10 10 9 10 27 27 20 15 19 29 39 38
20 20 18 18 10 15 11 10 8 3 3 0 3 1 4 7 9 7 3 17 7 6 8 14 1 8 22 26 14 27 9 18 14 9 6 22 8 22 27 26 19 13 26 33 33
26 24 22 18 12 15 13 10 7 5 8 1 3 4 2 4 4 1 3 3 2 4 10 19 17 5 8 6 6 11 12 7 8 7 11 33 17 12 18 14 4 4 15 21 23
27 25 23 19 17 15 13 7 4 4 6 2 3 3 3 2 4 4 5 5 4 0 5 6 17 24 23 20 20 13 11 5 6 11 15 23 13 20 29 18 21 13 11 22 28
26 26 27 21 21 18 15 4 4 3 3 4 4 4 3 4 2 5 4 3 3 4 8 9 15 7 5 16 19 12 17 11 21 11 16 8 13 18 14 23 17 6 10 14 16
26 26 24 23 16 16 16 4 8 6 1 6 3 5 3 3 3 7 6 6 6 10 3 3 10 11 6 3 5 7 14 19 21 25 17 19 22 15 10 4 7 8 18 21 20
29 25 22 23 23 11 3 9 4 4 4 3 3 0 2 7 6 6 3 4 5 13 12 5 7 9 10 5 12 13 4 3 8 16 28 13 20 17 8 11 14 14 14 27 18
26 12 17 21 18 8 4 4 0 8 4 1 3 3 3 2 2 3 5 4 4 5 9 8 5 6 8 3 13 8 6 11 8 8 11 20 7 9 15 15 17 18 26 25 21
22 3 21 25 5 3 3 4 3 7 2 5 2 7 8 10 10 8 11 9 6 3 3 3 4 4 9 20 8 10 4 4 2 7 7 4 2 7 10 15 15 16 27 30 25
21 7 18 32 7 5 2 7 7 4 3 3 4 6 1 2 4 7 5 2 1 3 3 1 1 5 9 5 4 4 8 5 5 7 2 3 5 5 6 8 14 15 18 12 25
11 4 7 19 4 7 7 7 6 8 4 5 6 1 2 5 8 4 5 4 5 6 10 7 5 8 7 11 7 10 13 12 5 4 3 8 19 17 8 7 11 15 27 26 28
8 5 8 8 11 4 9 4 10 5 4 4 2 12 9 5 10 12 8 4 6 6 4 5 6 6 11 13 13 16 19 12 12 13 10 22 19 20 16 9 12 25 31 31 24
10 7 5 5 17 10 10 7 7 4 3 4 5 3 3 8 14 12 7 4 5 5 5 3 4 3 6 14 12 12 19 23 17 18 15 18 21 19 18 25 17 22 28 29 26
14 13 16 12 6 10 10 16 9 7 9 20 10 5 7 5 5 9 11 5 5 7 6 4 3 2 6 6 4 6 20 16 12 12 11 11 17 15 17 16 12 15 17 25 33
Wind_Direction
235 239 244 249 253 259 264 270 277 284 292 298 304 308 314 313 313 312 307 267 190 324 323 324 308 285 281 260 247 233 124 226 245 230 263 321 313 309 307 266 251 232 247 262 229
235 238 242 244 251 256 263 269 275 283 288 294 298 303 311 314 315 308 205 149 112 346 329 319 326 315 269 250 250 174 172 229 216 225 281 299 298 304 303 287 273 251 259 233 220
235 237 241 245 248 253 259 265 272 279 287 293 297 300 308 318 322 254 176 196 289 325 316 297 280 274 261 249 238 224 217 227 245 280 297 265 285 290 282 288 284 278 273 210 205
237 239 241 246 249 253 259 266 273 279 284 288 292 297 304 313 290 211 220 255 278 299 282 271 249 238 208 220 234 289 265 272 284 288 284 279 287 267 259 267 282 289 285 232 201
237 241 243 246 251 252 258 264 270 276 281 286 289 293 301 271 263 272 263 265 272 276 241 233 250 231 210 235 290 251 256 282 287 292 288 290 263 258 267 274 282 282 259 231 218
238 241 241 242 248 252 260 268 272 277 282 285 289 292 295 263 294 296 238 250 273 242 238 231 225 218 273 244 224 293 299 290 295 285 281 274 275 279 270 274 274 265 253 231 221
236 238 240 245 248 255 262 270 274 280 281 283 289 293 278 264 281 279 275 266 263 253 258 244 243 249 285 309 288 290 305 300 275 269 257 279 264 244 264 269 266 260 257 242 231
233 235 239 242 249 257 264 270 277 276 274 281 289 294 267 291 282 278 279 274 269 255 249 249 249 262 256 267 306 305 286 279 254 216 261 173 270 263 269 260 269 280 276 253 237
228 234 237 244 253 259 264 271 270 267 269 273 284 287 272 279 269 312 313 289 269 267 253 253 236 232 203 141 314 209 265 229 292 237 261 205 286 244 302 300 279 281 280 268 257
226 231 238 244 252 256 260 260 263 265 260 261 248 281 257 251 260 264 309 263 262 277 231 198 207 168 169 166 234 205 230 221 217 264 263 286 281 270 276 278 273 277 280 271 263
224 230 236 239 237 234 231 254 252 247 224 218 203 206 243 240 277 203 249 256 272 247 215 198 202 209 203 206 230 207 241 256 184 230 304 273 280 284 288 265 271 274 276 280 282
218 221 217 211 210 214 210 198 181 285 295 254 250 256 256 261 286 248 238 274 202 215 200 294 242 223 205 217 225 241 259 263 277 244 238 249 272 283 283 270 257 266 267 275 278
197 198 196 194 191 188 180 184 212 241 265 264 247 248 252 246 240 262 245 236 191 215 200 226 215 213 216 228 226 242 240 259 253 234 257 275 282 286 281 266 266 258 263 268 266
187 185 181 184 186 171 155 154 152 203 323 265 235 250 197 193 251 277 234 204 198 225 203 254 264 256 260 242 226 254 230 259 265 271 263 165 277 289 278 278 259 255 254 261 262
180 176 177 179 172 166 158 155 151 147 341 112 158 162 166 169 309 21 260 184 218 184 156 226 84 221 238 247 229 257 227 247 253 242 294 266 234 262 286 277 267 239 249 255 262
174 172 174 182 162 164 165 158 135 58 248 354 106 99 97 249 290 358 126 189 197 221 271 264 284 280 253 300 241 298 283 264 273 261 250 253 238 280 264 257 208 225 246 262 274
176 172 167 169 180 174 170 141 62 163 344 61 54 11 334 256 305 202 169 181 192 75 234 278 255 256 255 270 272 269 277 279 253 232 249 267 272 232 258 260 250 264 265 281 275
175 178 174 175 166 177 164 85 191 222 271 356 7 313 229 0 326 327 311 306 249 240 274 271 292 225 201 209 241 211 224 233 251 249 256 256 235 244 267 266 271 13 344 328 305
175 179 177 175 165 165 152 190 195 180 47 11 355 1 343 50 17 27 15 13 52 27 302 292 257 311 255 323 225 281 220 242 253 261 270 259 279 287 274 360 352 346 350 348 339
173 173 179 186 183 157 119 219 193 212 74 76 151 270 295 346 357 27 319 54 7 33 360 323 280 263 301 295 257 230 265 211 220 242 247 232 246 250 3 9 348 358 345 341 341
168 150 178 176 170 157 208 223 157 270 300 19 258 255 240 352 357 336 298 87 51 357 64 14 318 325 338 333 323 301 262 252 266 253 244 243 244 29 25 7 343 334 330 332 324
156 127 166 172 152 192 176 181 230 251 328 234 260 249 256 267 272 258 263 251 115 59 358 104 275 309 276 284 336 282 71 294 340 335 283 307 130 80 343 355 332 324 327 326 315
145 117 165 176 185 192 208 222 242 237 184 175 228 215 88 275 242 231 266 30 118 196 218 179 8 308 308 140 97 357 307 245 274 230 278 3 292 7 276 313 303 292 261 296 262
137 137 158 188 206 177 178 211 219 210 200 199 211 199 244 257 228 250 210 193 240 215 229 168 204 213 241 268 306 280 298 303 256 269 355 267 277 279 245 288 292 283 267 265 291
152 180 167 180 198 155 168 197 215 222 195 185 240 214 212 237 245 236 211 191 209 222 176 191 238 238 253 264 278 277 294 291 293 292 271 276 281 285 303 284 263 293 295 293 292
144 141 137 127 154 168 182 199 201 177 151 260 222 189 255 248 250 260 169 186 197 177 180 196 253 236 282 287 265 278 285 278 268 268 257 254 266 279 282 271 251 249 270 282 290
183 150 154 160 138 173 205 218 230 187 245 237 227 208 207 217 77 268 237 205 185 173 202 187 214 161 256 265 280 286 258 274 262 260 269 282 289 344 323 298 283 291 296 298 277
Height
1515 1515 1516 1517 1517 1518 1518 1517 1517 1517 1516 1515 1514 1513 1512 1509 1508 1506 1503 1503 1503 1502 1501 1500 1499 1498 1498 1497 1499 1499 1506 1513 1499 1493 1486 1480 1479 1477 1474 1472 1469 1467 1465 1466 1465
1511 1512 1513 1512 1513 1514 1514 1514 1514 1514 1514 1513 1511 1510 1510 1508 1505 1502 1501 1500 1499 1500 1500 1499 1497 1496 1495 1495 1496 1496 1507 1498 1487 1483 1482 1480 1478 1476 1473 1469 1467 1463 1462 1462 1462
1507 1508 1509 1509 1509 1510 1511 1511 1511 1511 1511 1510 1509 1507 1507 1507 1505 1498 1499 1499 1497 1498 1498 1498 1498 1496 1495 1494 1491 1490 1495 1486 1482 1480 1478 1476 1474 1474 1472 1467 1463 1461 1460 1459 1459
1503 1504 1504 1506 1506 1506 1507 1508 1509 1508 1508 1507 1505 1504 1504 1506 1509 1498 1497 1496 1496 1495 1496 1495 1496 1496 1494 1493 1489 1490 1485 1484 1481 1479 1475 1471 1471 1467 1468 1463 1456 1457 1457 1457 1456
1499 1500 1501 1501 1503 1502 1504 1505 1505 1505 1504 1503 1502 1500 1501 1503 1495 1496 1496 1493 1491 1492 1493 1491 1492 1493 1492 1488 1486 1485 1482 1480 1478 1475 1469 1468 1464 1463 1460 1451 1453 1453 1452 1451 1451
1493 1495 1497 1496 1499 1498 1500 1502 1502 1502 1500 1500 1498 1497 1497 1499 1488 1489 1487 1488 1487 1489 1490 1489 1489 1490 1487 1485 1485 1479 1477 1476 1474 1471 1466 1462 1453 1459 1451 1447 1447 1447 1446 1445 1446
1487 1492 1492 1492 1495 1495 1496 1499 1499 1498 1498 1496 1495 1493 1491 1481 1485 1484 1482 1480 1481 1483 1486 1487 1487 1488 1486 1484 1480 1479 1477 1471 1470 1463 1461 1455 1448 1447 1441 1442 1440 1439 1439 1440 1440
1483 1486 1486 1489 1489 1490 1493 1495 1494 1495 1494 1493 1490 1489 1482 1477 1476 1475 1476 1474 1474 1475 1477 1481 1484 1484 1484 1484 1481 1482 1478 1477 1460 1459 1455 1456 1437 1438 1436 1435 1436 1435 1432 1433 1432
1478 1480 1481 1483 1484 1488 1487 1489 1490 1490 1491 1490 1488 1488 1478 1473 1470 1471 1471 1472 1471 1473 1474 1477 1479 1478 1481 1485 1485 1482 1479 1475 1468 1458 1455 1456 1435 1431 1432 1433 1432 1429 1426 1425 1425
1472 1474 1477 1477 1480 1483 1483 1485 1486 1486 1485 1487 1484 1490 1475 1470 1469 1469 1470 1470 1472 1473 1473 1475 1475 1475 1476 1480 1477 1472 1478 1471 1464 1456 1452 1454 1426 1429 1430 1430 1425 1422 1419 1417 1416
1465 1469 1472 1474 1476 1478 1480 1482 1486 1485 1480 1475 1472 1468 1468 1470 1469 1468 1468 1468 1469 1472 1473 1472 1475 1468 1460 1460 1457 1461 1463 1460 1456 1453 1455 1454 1430 1411 1422 1423 1420 1415 1413 1410 1407
1458 1464 1468 1471 1472 1473 1475 1477 1479 1479 1474 1468 1467 1464 1463 1467 1467 1464 1466 1470 1468 1471 1471 1473 1455 1453 1455 1456 1458 1460 1462 1447 1444 1447 1451 1450 1428 1402 1414 1413 1413 1410 1406 1403 1400
1453 1460 1464 1467 1469 1470 1472 1473 1475 1476 1475 1461 1458 1455 1454 1457 1457 1451 1459 1460 1463 1466 1465 1465 1446 1445 1452 1453 1459 1458 1448 1447 1449 1446 1440 1443 1429 1401 1390 1401 1402 1399 1398 1394 1390
1447 1455 1460 1466 1471 1467 1468 1471 1472 1477 1478 1460 1454 1448 1449 1450 1454 1447 1447 1456 1456 1455 1462 1455 1450 1450 1452 1450 1460 1452 1447 1445 1446 1452 1448 1434 1437 1400 1378 1389 1392 1390 1389 1385 1384
1442 1449 1456 1463 1464 1466 1469 1471 1472 1474 1501 1452 1449 1448 1447 1450 1449 1447 1446 1451 1452 1449 1455 1435 1444 1447 1444 1439 1452 1436 1441 1440 1439 1444 1445 1424 1435 1390 1380 1380 1378 1379 1376 1374 1373
1436 1443 1450 1458 1463 1465 1467 1469 1472 1483 1487 1449 1447 1450 1448 1448 1448 1446 1446 1450 1451 1455 1452 1437 1440 1443 1442 1443 1445 1442 1439 1437 1436 1437 1441 1409 1414 1407 1383 1366 1363 1364 1365 1368 1368
1434 1441 1446 1451 1458 1462 1465 1470 1484 1498 1456 1452 1452 1452 1449 1448 1447 1444 1446 1450 1455 1458 1457 1442 1435 1431 1443 1446 1440 1444 1448 1449 1444 1431 1419 1397 1413 1399 1357 1350 1359 1362 1359 1358 1359
1431 1440 1442 1447 1451 1459 1462 1470 1488 1460 1458 1452 1455 1453 1451 1448 1447 1447 1444 1446 1448 1448 1448 1449 1439 1424 1427 1433 1429 1435 1435 1444 1426 1425 1407 1399 1394 1374 1366 1360 1365 1364 1364 1361 1355
1429 1436 1440 1444 1448 1456 1460 1470 1464 1456 1452 1457 1455 1457 1456 1455 1455 1450 1451 1455 1458 1457 1454 1451 1439 1420 1424 1429 1430 1423 1428 1413 1426 1419 1413 1396 1382 1367 1361 1367 1365 1366 1362 1358 1354
1426 1433 1438 1445 1449 1455 1461 1456 1456 1452 1453 1457 1462 1462 1464 1462 1459 1456 1452 1459 1462 1464 1463 1458 1441 1430 1422 1422 1418 1420 1412 1419 1415 1416 1408 1383 1380 1369 1375 1376 1375 1368 1367 1362 1355
1425 1432 1436 1444 1450 1453 1457 1456 1452 1453 1456 1459 1460 1461 1462 1465 1462 1461 1455 1461 1465 1467 1465 1468 1459 1439 1435 1423 1434 1424 1413 1415 1403 1396 1385 1376 1373 1392 1395 1386 1385 1379 1375 1368 1361
1422 1433 1436 1440 1450 1450 1455 1451 1452 1453 1455 1459 1461 1462 1464 1464 1461 1461 1456 1454 1463 1469 1469 1467 1465 1456 1448 1427 1426 1439 1434 1445 1415 1417 1411 1388 1378 1393 1397 1385 1383 1384 1378 1367 1362
1420 1429 1435 1437 1442 1446 1448 1452 1453 1452 1454 1457 1457 1459 1460 1463 1465 1458 1456 1457 1461 1463 1469 1466 1463 1459 1432 1430 1434 1441 1437 1434 1434 1425 1415 1411 1395 1384 1384 1384 1382 1378 1379 1370 1365
1417 1426 1432 1436 1438 1440 1445 1449 1451 1450 1452 1455 1457 1460 1464 1463 1463 1460 1455 1454 1457 1459 1462 1463 1460 1462 1459 1442 1440 1437 1429 1426 1433 1422 1411 1414 1402 1380 1381 1376 1369 1369 1368 1364 1355
1410 1414 1419 1425 1433 1440 1443 1446 1448 1451 1451 1455 1455 1455 1456 1459 1456 1456 1453 1451 1453 1455 1454 1457 1460 1451 1444 1438 1437 1437 1421 1416 1419 1408 1422 1401 1399 1376 1360 1372 1370 1363 1367 1361 1353
1405 1409 1417 1423 1426 1436 1439 1442 1446 1447 1450 1454 1456 1453 1454 1455 1454 1451 1450 1451 1449 1452 1456 1455 1461 1450 1450 1433 1430 1429 1419 1410 1408 1404 1403 1397 1381 1370 1366 1365 1357 1366 1367 1360 1351
1401 1406 1410 1420 1428 1433 1431 1434 1438 1443 1445 1444 1447 1452 1454 1448 1447 1454 1451 1446 1441 1447 1454 1455 1460 1455 1449 1433 1430 1437 1407 1400 1393 1388 1387 1385 1379 1376 1357 1358 1358 1355 1357 1350 1348